Wind_Speed
20 22 25 28 31 32 32 32 31 29 28 28 28 29 31 33 35 37 38 39 41 42 43 44 46 47 47 48 50 52 52 52 53 54 55 55 54 53 55 55 56 55 56
25 26 28 30 30 30 30 29 28 28 28 28 30 32 33 35 38 40 41 42 43 44 45 46 48 49 50 51 53 56 56 55 55 56 57 58 56 55 56 56 57 56 57
28 29 28 28 28 28 28 27 27 28 29 30 31 32 34 36 38 40 41 42 44 45 46 47 49 50 52 53 54 56 58 58 58 59 60 61 61 59 57 56 56 57 59
28 26 26 26 26 26 26 27 28 29 30 31 33 34 35 37 39 41 41 41 42 43 45 47 50 52 54 55 56 58 60 61 62 63 64 64 64 65 64 61 60 61 62
24 24 24 25 26 27 28 29 31 33 34 36 38 40 41 43 45 47 48 49 49 49 51 54 57 59 60 61 62 62 63 64 65 66 66 66 65 63 65 65 64 66 65
23 24 26 27 29 30 32 33 36 38 40 42 44 45 47 48 50 51 53 54 55 56 57 59 61 62 63 64 65 65 65 66 67 67 67 68 67 65 66 68 68 69 65
25 27 30 32 33 35 37 39 40 42 44 46 48 49 51 53 54 54 55 55 56 58 59 61 62 63 63 64 65 67 67 67 68 69 69 70 70 70 70 70 69 68 64
30 33 35 37 38 40 41 42 44 45 46 47 49 50 52 54 55 57 58 59 61 63 64 65 66 65 66 67 68 69 69 69 70 70 71 72 72 73 73 72 69 69 67
37 39 40 39 40 41 43 44 46 47 49 51 52 54 56 58 60 62 64 65 67 68 68 68 68 68 68 68 69 70 70 70 71 73 74 75 75 75 75 73 70 69 69
38 40 40 40 41 44 46 48 50 52 54 55 57 58 59 61 63 64 66 66 66 66 65 65 65 66 67 69 71 73 73 74 74 75 76 76 76 76 75 74 71 67 65
38 41 43 43 45 48 50 52 53 55 56 57 58 59 60 61 61 62 63 63 63 64 66 68 69 70 71 73 75 76 77 78 78 78 78 77 76 75 75 74 70 67 64
41 45 46 48 50 52 52 53 54 55 56 57 58 60 61 62 63 64 65 66 67 69 70 70 72 73 75 76 78 79 80 81 81 82 82 81 78 76 75 74 72 69 65
43 47 49 51 52 53 55 56 57 58 59 60 62 63 65 66 67 69 70 71 72 72 73 73 74 75 76 77 78 79 80 82 83 84 84 83 82 80 78 76 75 72 68
43 46 50 53 56 59 61 63 64 66 67 69 70 70 71 71 71 72 72 72 73 73 73 74 75 76 77 78 79 80 81 82 83 84 83 82 82 80 78 77 74 70 66
48 51 55 58 61 64 66 68 70 72 73 74 75 76 76 76 75 74 74 74 74 75 75 75 76 77 78 80 81 83 84 84 84 82 80 79 79 77 75 74 71 65 61
54 57 60 64 66 68 70 72 73 74 75 76 77 77 76 76 75 75 75 75 76 76 77 77 78 79 80 82 83 84 84 84 83 81 79 77 76 74 71 69 64 59 57
61 64 67 70 72 74 75 76 77 78 78 78 78 77 77 77 77 75 74 74 75 76 77 78 79 80 80 80 81 81 81 82 82 81 79 76 73 71 68 65 60 56 54
68 71 74 77 79 80 80 80 80 80 79 78 77 76 77 77 76 76 77 78 78 78 78 78 78 78 77 78 78 79 79 79 79 78 77 76 74 71 66 62 58 54 53
75 78 80 82 83 83 82 80 79 79 77 76 76 76 76 76 77 78 79 78 78 77 76 75 74 74 74 74 76 78 79 79 78 77 75 74 72 67 62 58 54 51 49
80 82 84 84 83 81 79 77 76 75 75 75 75 75 74 74 73 73 72 72 72 72 73 73 73 74 74 76 78 81 82 81 80 76 73 69 65 60 56 54 51 47 45
83 83 82 81 79 77 74 73 73 73 73 74 73 73 72 72 71 71 70 71 72 74 75 76 77 78 79 80 81 82 82 80 76 71 65 60 56 53 51 51 49 46 43
80 79 77 75 73 72 70 70 70 70 70 69 69 68 68 68 69 71 72 74 77 80 81 82 82 82 82 81 79 76 72 68 64 59 55 51 47 46 47 48 48 44 40
74 72 70 68 67 67 67 66 66 65 64 63 63 63 65 67 70 73 76 79 82 84 85 85 84 81 78 75 71 66 61 56 53 50 47 44 42 42 43 44 45 41 36
68 65 63 62 63 63 62 61 61 60 61 62 64 67 70 72 75 78 81 83 84 84 83 81 78 74 69 65 61 56 52 47 45 43 42 41 40 40 39 40 41 38 33
63 61 59 59 59 58 58 60 61 63 66 68 71 74 77 79 80 82 83 84 82 80 77 73 69 65 60 56 53 50 45 41 38 37 37 38 38 36 34 35 36 33 29
58 57 57 57 58 59 61 64 67 70 73 75 77 79 81 83 84 84 83 80 75 69 64 60 59 56 53 50 46 43 40 36 33 32 33 33 31 28 28 30 31 29 26
Wind_Direction
260 269 277 282 285 286 287 287 287 286 286 286 283 282 283 283 283 284 284 283 282 281 279 276 276 279 283 287 290 292 295 297 299 300 301 301 301 302 302 303 303 303 303
267 273 278 281 283 285 287 287 287 287 287 288 288 288 287 287 286 285 285 284 283 283 282 280 280 281 284 287 290 293 295 297 297 298 299 299 299 300 301 302 302 302 302
274 278 280 282 284 286 287 288 289 290 291 292 293 292 291 290 289 288 289 289 288 288 288 287 286 287 288 290 292 294 295 296 297 297 297 297 298 298 299 298 299 301 303
277 279 280 281 282 284 286 288 290 291 292 292 292 292 293 293 293 292 292 291 290 290 289 288 287 286 287 289 290 291 293 294 295 294 295 296 298 300 300 300 301 301 303
274 276 278 279 281 283 286 288 290 291 291 292 292 292 292 292 291 291 290 290 289 289 288 288 288 288 289 291 292 292 292 293 293 294 295 297 298 299 300 301 302 303 304
271 273 276 278 280 283 286 288 288 289 290 290 291 291 291 290 290 290 290 290 290 289 288 287 287 287 288 289 289 289 290 291 292 293 294 296 297 298 299 300 302 302 305
274 277 280 282 284 286 288 288 288 289 290 290 291 290 290 290 289 288 288 287 287 286 285 285 285 285 286 287 287 287 288 289 290 292 293 294 295 297 298 300 301 302 305
282 285 287 289 291 293 293 293 293 293 292 292 291 290 289 288 287 286 285 284 283 282 282 282 283 283 284 284 285 286 287 289 290 291 292 293 295 296 297 299 301 302 304
290 292 293 294 295 295 294 294 293 292 291 290 289 288 287 286 284 283 283 282 282 282 282 282 283 283 283 284 284 286 287 288 288 289 290 292 293 295 296 297 299 301 303
295 295 294 295 295 294 294 294 294 293 292 291 290 289 288 286 285 284 284 284 284 285 286 286 285 285 285 285 285 286 286 287 288 288 289 290 291 292 293 294 296 298 300
297 296 296 296 295 295 295 295 294 294 293 292 292 291 289 288 287 287 286 286 287 287 288 288 287 287 286 286 286 286 287 287 287 287 287 288 289 289 290 292 294 295 295
297 297 297 297 296 296 295 294 293 292 292 291 291 290 289 288 287 286 286 286 286 286 287 287 287 287 287 287 287 287 288 288 288 287 287 287 287 287 288 289 291 291 291
297 298 298 298 298 298 297 296 294 294 293 292 291 290 289 288 287 287 286 286 286 286 286 286 285 285 285 285 286 286 285 285 285 285 284 285 285 286 286 286 287 288 289
299 300 300 300 300 300 299 298 296 295 294 293 292 291 290 288 287 286 286 285 284 284 284 283 283 283 283 283 283 283 283 283 283 284 284 285 285 286 286 286 287 287 287
299 300 300 299 299 299 298 298 297 296 295 294 293 292 291 291 290 289 287 285 284 282 281 281 280 280 281 281 281 281 281 282 283 284 286 286 286 287 287 286 287 286 284
298 299 299 299 298 298 297 296 295 295 294 293 293 292 291 290 289 288 286 285 284 284 282 281 280 280 279 280 280 280 281 281 283 284 284 285 285 286 286 285 284 282 280
299 299 299 298 298 298 297 296 296 296 295 294 293 291 291 290 289 288 286 285 284 283 282 281 280 279 278 279 280 282 282 283 283 283 283 283 283 284 283 281 279 277 276
300 299 299 299 299 299 298 297 297 296 294 293 291 290 290 289 288 287 287 285 284 284 283 282 281 281 280 280 281 282 283 283 283 284 284 283 283 283 282 279 277 276 274
299 299 299 299 299 299 299 298 296 295 293 291 290 290 289 288 288 288 288 286 285 285 284 284 284 283 284 284 284 284 283 283 283 283 284 284 283 282 280 277 274 271 269
297 298 299 299 299 299 298 296 294 293 292 291 291 291 291 291 291 290 289 288 286 286 286 286 286 285 286 286 286 285 284 283 282 282 282 281 281 280 277 273 269 266 266
298 299 299 299 299 298 296 294 293 293 293 293 294 294 294 293 292 291 290 289 288 288 288 288 288 288 288 287 286 285 284 284 283 282 281 280 278 275 272 267 264 263 264
300 300 299 298 297 297 296 295 295 295 296 296 296 296 296 295 295 294 294 294 293 292 292 291 291 290 289 288 286 285 284 283 283 282 282 280 275 268 265 262 260 260 262
301 299 298 297 297 297 297 298 298 299 300 300 299 299 299 299 299 299 299 298 297 296 295 294 293 291 289 287 285 283 282 280 279 280 281 280 274 267 262 259 257 255 258
300 300 299 299 299 299 300 301 302 302 302 302 302 302 302 302 301 301 301 301 300 299 298 296 294 291 288 285 283 282 280 277 275 276 277 276 273 270 265 258 252 249 253
302 301 300 300 301 302 303 303 304 304 304 303 303 303 304 304 303 303 304 304 304 303 301 299 296 293 289 285 283 280 276 272 269 269 270 271 272 273 269 258 247 244 248
300 299 300 301 303 304 305 305 305 306 306 306 306 306 306 306 306 307 307 307 306 304 302 301 300 297 293 289 284 279 272 267 264 264 265 268 271 273 269 254 242 239 243
Height
5825 5826 5825 5825 5824 5823 5821 5820 5818 5817 5817 5816 5814 5813 5812 5811 5810 5808 5806 5804 5801 5799 5797 5796 5794 5791 5789 5786 5782 5778 5775 5771 5766 5763 5759 5756 5752 5748 5742 5738 5734 5729 5724
5822 5822 5821 5820 5819 5817 5816 5814 5813 5812 5811 5810 5808 5807 5806 5804 5802 5800 5798 5795 5792 5790 5788 5786 5784 5782 5779 5776 5772 5767 5764 5760 5755 5751 5746 5743 5742 5737 5731 5727 5722 5717 5712
5818 5817 5816 5815 5814 5813 5811 5809 5808 5806 5805 5804 5803 5801 5799 5797 5794 5792 5789 5786 5783 5781 5779 5777 5775 5773 5769 5766 5761 5756 5751 5748 5743 5738 5733 5728 5726 5723 5722 5717 5712 5706 5701
5813 5812 5811 5810 5809 5808 5807 5805 5803 5801 5800 5798 5796 5794 5792 5790 5787 5784 5781 5778 5774 5772 5768 5765 5762 5759 5755 5752 5748 5743 5738 5734 5730 5724 5719 5715 5711 5707 5705 5703 5699 5694 5688
5807 5806 5806 5805 5804 5803 5801 5800 5798 5796 5794 5791 5789 5787 5784 5781 5778 5775 5772 5769 5766 5763 5759 5754 5750 5746 5742 5739 5735 5730 5725 5720 5715 5710 5705 5701 5697 5693 5688 5685 5683 5678 5674
5802 5801 5800 5799 5798 5797 5796 5794 5792 5789 5787 5784 5781 5778 5775 5771 5768 5765 5761 5758 5754 5751 5747 5742 5738 5733 5729 5725 5721 5715 5711 5706 5701 5696 5691 5686 5682 5679 5674 5669 5667 5662 5659
5796 5795 5794 5793 5792 5791 5789 5787 5784 5781 5778 5775 5771 5768 5764 5761 5757 5753 5749 5745 5741 5736 5732 5727 5723 5719 5714 5710 5705 5700 5696 5692 5687 5683 5678 5672 5668 5664 5659 5655 5651 5647 5645
5791 5790 5788 5787 5785 5783 5781 5778 5775 5772 5768 5765 5761 5757 5752 5748 5743 5739 5735 5730 5725 5720 5715 5711 5707 5703 5699 5694 5689 5685 5681 5677 5673 5668 5663 5657 5653 5649 5644 5640 5635 5631 5629
5785 5783 5781 5780 5777 5775 5772 5768 5765 5761 5758 5754 5749 5745 5740 5735 5730 5725 5720 5715 5710 5706 5701 5696 5691 5687 5683 5679 5674 5670 5666 5662 5657 5652 5647 5642 5638 5634 5629 5625 5620 5615 5611
5778 5775 5773 5771 5769 5765 5761 5757 5753 5749 5745 5740 5736 5731 5726 5721 5716 5710 5705 5700 5695 5691 5687 5682 5677 5671 5666 5662 5658 5654 5650 5645 5641 5636 5631 5626 5622 5618 5613 5609 5606 5601 5596
5769 5766 5764 5761 5758 5754 5750 5745 5740 5735 5730 5725 5720 5716 5711 5706 5701 5696 5691 5686 5681 5676 5672 5667 5662 5657 5651 5646 5641 5636 5632 5627 5622 5617 5613 5609 5606 5601 5596 5593 5590 5587 5582
5759 5756 5753 5749 5745 5741 5737 5732 5726 5722 5717 5712 5707 5702 5697 5692 5687 5681 5676 5671 5665 5660 5654 5649 5644 5638 5633 5627 5621 5616 5612 5607 5602 5597 5593 5589 5587 5583 5580 5577 5574 5571 5568
5749 5744 5741 5737 5732 5728 5724 5719 5713 5709 5704 5699 5693 5688 5682 5676 5671 5665 5659 5653 5647 5642 5636 5630 5625 5619 5614 5608 5602 5596 5591 5586 5581 5576 5572 5569 5566 5563 5561 5559 5557 5555 5552
5738 5734 5729 5724 5719 5715 5710 5705 5700 5695 5689 5683 5677 5672 5666 5660 5654 5648 5642 5635 5628 5622 5617 5611 5605 5599 5593 5587 5581 5575 5571 5566 5561 5557 5552 5550 5546 5543 5541 5538 5537 5536 5534
5726 5722 5718 5712 5707 5701 5696 5689 5683 5677 5671 5665 5659 5653 5647 5641 5634 5628 5622 5615 5609 5602 5596 5590 5585 5579 5572 5565 5558 5552 5549 5545 5542 5538 5534 5530 5527 5523 5520 5517 5517 5516 5515
5715 5710 5705 5698 5692 5686 5679 5672 5665 5658 5651 5645 5638 5632 5626 5619 5613 5606 5600 5594 5588 5582 5576 5570 5564 5558 5551 5543 5535 5529 5526 5523 5520 5517 5514 5511 5507 5504 5500 5498 5497 5497 5496
5701 5696 5689 5682 5675 5668 5661 5653 5646 5639 5631 5624 5617 5610 5603 5596 5590 5583 5577 5571 5566 5561 5555 5549 5542 5536 5530 5522 5514 5508 5504 5500 5497 5495 5492 5491 5489 5484 5481 5479 5479 5479 5479
5683 5677 5670 5663 5655 5648 5640 5632 5624 5617 5609 5602 5595 5587 5580 5574 5568 5561 5555 5549 5543 5537 5531 5525 5520 5514 5509 5502 5495 5489 5485 5482 5478 5474 5471 5469 5468 5465 5461 5459 5460 5461 5461
5664 5657 5649 5641 5633 5625 5618 5610 5602 5594 5586 5579 5572 5565 5559 5552 5546 5540 5533 5526 5520 5515 5509 5504 5499 5494 5489 5483 5476 5468 5464 5461 5458 5455 5452 5447 5445 5444 5441 5439 5440 5442 5444
5646 5637 5629 5620 5612 5604 5596 5588 5580 5572 5565 5558 5552 5544 5537 5530 5524 5518 5511 5505 5498 5493 5488 5484 5478 5473 5468 5462 5455 5446 5440 5438 5436 5434 5431 5427 5424 5423 5422 5421 5422 5425 5428
5627 5618 5608 5599 5590 5582 5575 5567 5559 5552 5546 5539 5532 5524 5517 5510 5504 5497 5491 5484 5478 5472 5467 5462 5457 5451 5444 5437 5429 5420 5414 5410 5409 5409 5408 5407 5406 5405 5405 5405 5406 5409 5412
5606 5596 5587 5577 5568 5560 5554 5547 5540 5534 5527 5520 5513 5506 5499 5492 5484 5478 5471 5463 5455 5448 5442 5435 5430 5425 5417 5409 5402 5395 5390 5386 5384 5385 5386 5387 5388 5388 5389 5390 5392 5395 5398
5581 5573 5565 5557 5548 5541 5534 5528 5522 5515 5509 5502 5495 5488 5482 5474 5465 5457 5449 5440 5431 5421 5413 5406 5400 5396 5390 5383 5377 5374 5371 5369 5368 5369 5370 5370 5371 5372 5374 5377 5379 5383 5387
5559 5552 5545 5539 5531 5524 5517 5510 5504 5498 5492 5485 5478 5471 5463 5455 5446 5436 5425 5415 5405 5394 5385 5377 5370 5366 5362 5358 5355 5354 5354 5354 5354 5356 5358 5358 5358 5358 5360 5363 5367 5372 5376
5541 5535 5530 5523 5516 5510 5503 5495 5488 5482 5475 5467 5459 5451 5442 5432 5423 5413 5402 5389 5379 5366 5357 5350 5344 5339 5338 5336 5334 5335 5337 5339 5341 5343 5346 5347 5348 5349 5350 5352 5356 5361 5366
5527 5521 5515 5508 5501 5495 5487 5479 5471 5463 5455 5446 5437 5428 5418 5408 5398 5387 5379 5368 5356 5347 5337 5330 5324 5320 5317 5316 5318 5319 5322 5325 5328 5332 5335 5336 5338 5339 5340 5342 5347 5353 5358